| time (UTC) | temp F | wind direction | speed MPH | gust MPH | rain 1hr in | rain 24hr in | rain mn in | humidity % | barometer mb |
| 20260506113028 | 74 | 129 | 9.0 | 12.0 | 0.00 | 0.00 | 0.00 | 91 | 1009.2 |
| 20260506111525 | 74 | 97 | 9.0 | 13.0 | 0.00 | 0.00 | 0.00 | 91 | 1009.4 |
| 20260506110031 | 74 | 126 | 9.0 | 15.0 | 0.00 | 0.00 | 0.00 | 90 | 1009.3 |
| 20260506104525 | 74 | 113 | 10.0 | 15.0 | 0.00 | 0.00 | 0.00 | 91 | 1009.3 |
| 20260506103029 | 74 | 111 | 7.0 | 14.0 | 0.00 | 0.00 | 0.00 | 91 | 1009.2 |
| 20260506101529 | 75 | 96 | 9.0 | 13.0 | 0.00 | 0.00 | 0.00 | 91 | 1009.1 |
| 20260506100025 | 75 | 109 | 7.0 | 13.0 | 0.00 | 0.00 | 0.00 | 90 | 1009.1 |
| 20260506094527 | 75 | 114 | 9.0 | 13.0 | 0.00 | 0.00 | 0.00 | 90 | 1008.9 |
| 20260506093030 | 75 | 100 | 11.0 | 14.0 | 0.00 | 0.00 | 0.00 | 90 | 1008.9 |
| 20260506091528 | 75 | 94 | 11.0 | 16.0 | 0.00 | 0.00 | 0.00 | 90 | 1008.9 |
| 20260506090027 | 75 | 99 | 12.0 | 17.0 | 0.00 | 0.00 | 0.00 | 90 | 1008.6 |
| 20260506084526 | 75 | 80 | 12.0 | 17.0 | 0.00 | 0.00 | 0.00 | 90 | 1008.7 |
| 20260506083027 | 75 | 107 | 10.0 | 15.0 | 0.00 | 0.00 | 0.00 | 90 | 1008.6 |
| 20260506081528 | 75 | 89 | 11.0 | 18.0 | 0.00 | 0.00 | 0.00 | 90 | 1008.6 |
| 20260506073025 | 75 | 100 | 13.0 | 17.0 | 0.00 | 0.00 | 0.00 | 89 | 1008.8 |
| 20260506071532 | 76 | 103 | 10.0 | 17.0 | 0.00 | 0.00 | 0.00 | 88 | 1008.9 |
| 20260506061533 | 76 | 85 | 10.0 | 18.0 | 0.00 | 0.00 | 0.00 | 86 | 1008.7 |
| 20260506044533 | 79 | 101 | 11.0 | 17.0 | 0.00 | 0.00 | 0.00 | 80 | 1008.7 |
| 20260506043027 | 79 | 82 | 13.0 | 18.0 | 0.00 | 0.00 | 0.00 | 79 | 1008.6 |
| 20260506041529 | 78 | 94 | 10.0 | 14.0 | 0.00 | 0.00 | 0.00 | 80 | 1008.4 |
| 20260506040050 | 78 | 74 | 11.0 | 15.0 | 0.00 | 0.00 | 0.00 | 80 | 1008.0 |
| 20260506034528 | 78 | 107 | 11.0 | 14.0 | 0.00 | 0.00 | 0.00 | 80 | 1007.9 |
| 20260506033026 | 78 | 92 | 10.0 | 14.0 | 0.00 | 0.00 | 0.00 | 80 | 1007.8 |
| 20260506031541 | 78 | 85 | 11.0 | 14.0 | 0.00 | 0.00 | 0.00 | 80 | 1007.6 |
| 20260506030028 | 78 | 89 | 10.0 | 12.0 | 0.00 | 0.00 | 0.00 | 80 | 1007.4 |
| 20260506024529 | 79 | 82 | 7.0 | 9.0 | 0.00 | 0.00 | 0.00 | 78 | 1007.3 |
| 20260506023027 | 79 | 69 | 7.0 | 10.0 | 0.00 | 0.00 | 0.00 | 77 | 1007.2 |
| 20260506021528 | 80 | 73 | 8.0 | 10.0 | 0.00 | 0.00 | 0.00 | 75 | 1007.2 |
| 20260506020029 | 81 | 66 | 8.0 | 11.0 | 0.00 | 0.00 | 0.00 | 75 | 1007.1 |
| 20260506014532 | 81 | 79 | 8.0 | 10.0 | 0.00 | 0.00 | 0.00 | 74 | 1007.0 |
| 20260506013029 | 82 | 71 | 7.0 | 9.0 | 0.00 | 0.00 | 0.00 | 72 | 1007.0 |
| 20260506011530 | 83 | 70 | 5.0 | 9.0 | 0.00 | 0.00 | 0.00 | 69 | 1006.8 |
| 20260506010027 | 85 | 76 | 7.0 | 11.0 | 0.00 | 0.00 | 0.00 | 66 | 1006.6 |
| 20260506004528 | 86 | 69 | 6.0 | 10.0 | 0.00 | 0.00 | 0.00 | 65 | 1006.7 |
| 20260506003028 | 86 | 58 | 9.0 | 13.0 | 0.00 | 0.00 | 0.00 | 62 | 1006.5 |
| 20260506001531 | 87 | 59 | 4.0 | 7.0 | 0.00 | 0.00 | 0.00 | 60 | 1006.4 |
| 20260506000032 | 87 | 51 | 4.0 | 7.0 | 0.00 | 0.00 | 0.00 | 59 | 1006.5 |
| 20260505234529 | 87 | 55 | 4.0 | 7.0 | 0.00 | 0.00 | 0.00 | 58 | 1006.5 |
| 20260505233029 | 87 | 78 | 3.0 | 9.0 | 0.00 | 0.00 | 0.00 | 58 | 1006.5 |
| 20260505231541 | 88 | 74 | 6.0 | 10.0 | 0.00 | 0.00 | 0.00 | 59 | 1006.5 |
| 20260505230033 | 87 | 61 | 4.0 | 10.0 | 0.00 | 0.00 | 0.00 | 60 | 1006.6 |
| 20260505224530 | 88 | 89 | 8.0 | 14.0 | 0.00 | 0.00 | 0.00 | 60 | 1006.4 |
| 20260505223032 | 87 | 65 | 5.0 | 9.0 | 0.00 | 0.00 | 0.00 | 61 | 1006.6 |
| 20260505221530 | 87 | 88 | 5.0 | 12.0 | 0.00 | 0.00 | 0.00 | 61 | 1006.6 |
| 20260505220035 | 87 | 67 | 5.0 | 8.0 | 0.00 | 0.00 | 0.00 | 61 | 1006.9 |
| 20260505214535 | 87 | 92 | 7.0 | 10.0 | 0.00 | 0.00 | 0.00 | 61 | 1007.0 |
| 20260505213033 | 87 | 136 | 2.0 | 9.0 | 0.00 | 0.00 | 0.00 | 62 | 1007.2 |
| 20260505211528 | 86 | 85 | 6.0 | 9.0 | 0.00 | 0.00 | 0.00 | 61 | 1007.5 |
| 20260505210030 | 86 | 234 | 0.0 | 6.0 | 0.00 | 0.00 | 0.00 | 63 | 1007.8 |
| 20260505204534 | 86 | 57 | 4.0 | 10.0 | 0.00 | 0.00 | 0.00 | 63 | 1008.0 |
| 20260505203031 | 85 | 140 | 1.0 | 7.0 | 0.00 | 0.00 | 0.00 | 64 | 1007.9 |
| 20260505201528 | 85 | 50 | 2.0 | 6.0 | 0.00 | 0.00 | 0.00 | 65 | 1008.3 |
| 20260505200039 | 85 | 105 | 4.0 | 9.0 | 0.00 | 0.00 | 0.00 | 65 | 1008.4 |
| 20260505194528 | 84 | 12 | 2.0 | 7.0 | 0.00 | 0.00 | 0.00 | 66 | 1008.5 |
| 20260505193030 | 84 | 283 | 2.0 | 8.0 | 0.00 | 0.00 | 0.00 | 66 | 1008.7 |
| 20260505191534 | 84 | 139 | 3.0 | 8.0 | 0.00 | 0.00 | 0.00 | 68 | 1008.9 |
| 20260505190036 | 83 | 166 | 5.0 | 8.0 | 0.00 | 0.00 | 0.00 | 66 | 1009.1 |
| 20260505184532 | 82 | 38 | 4.0 | 9.0 | 0.00 | 0.00 | 0.00 | 71 | 1009.1 |
| 20260505183039 | 82 | 86 | 3.0 | 7.0 | 0.00 | 0.00 | 0.00 | 72 | 1009.3 |
| 20260505181533 | 80 | 182 | 3.0 | 9.0 | 0.00 | 0.00 | 0.00 | 73 | 1009.8 |
| 20260505180037 | 80 | 180 | 2.0 | 6.0 | 0.00 | 0.00 | 0.00 | 76 | 1009.8 |
| 20260505174541 | 79 | 155 | 3.0 | 8.0 | 0.00 | 0.00 | 0.00 | 75 | 1010.1 |
| 20260505173036 | 77 | 46 | 1.0 | 6.0 | 0.00 | 0.00 | 0.00 | 77 | 1010.2 |
| 20260505171536 | 78 | 135 | 2.0 | 5.0 | 0.00 | 0.00 | 0.00 | 78 | 1010.2 |
| 20260505170034 | 77 | 99 | 0.0 | 6.0 | 0.00 | 0.00 | 0.00 | 80 | 1010.4 |
| 20260505164533 | 75 | 154 | 1.0 | 6.0 | 0.00 | 0.00 | 0.00 | 82 | 1010.2 |
| 20260505163036 | 75 | 142 | 2.0 | 7.0 | 0.00 | 0.00 | 0.00 | 83 | 1010.3 |
| 20260505161537 | 74 | 131 | 1.0 | 5.0 | 0.00 | 0.00 | 0.00 | 86 | 1010.1 |
| 20260505153033 | 73 | 160 | 5.0 | 9.0 | 0.00 | 0.00 | 0.00 | 85 | 1009.9 |
| 20260505151532 | 73 | 126 | 2.0 | 8.0 | 0.00 | 0.00 | 0.00 | 87 | 1010.0 |
| 20260505130104 | 69 | 140 | 4.0 | 7.0 | 0.00 | 0.00 | 0.00 | 92 | 1009.7 |
| 20260505124541 | 69 | 136 | 1.0 | 7.0 | 0.00 | 0.00 | 0.00 | 92 | 1009.5 |
| 20260505123455 | 69 | 142 | 4.0 | 8.0 | 0.00 | 0.00 | 0.00 | 92 | 1009.5 |
| 20260505121550 | 69 | 144 | 2.0 | 8.0 | 0.00 | 0.00 | 0.00 | 92 | 1009.3 |
| 20260505120107 | 69 | 126 | 3.0 | 8.0 | 0.00 | 0.00 | 0.00 | 91 | 1009.1 |
| 20260505114549 | 69 | 124 | 7.0 | 10.0 | 0.00 | 0.00 | 0.00 | 91 | 1009.0 |